CAPE
472 551 781 1872 91 0 26 9 0 1 0 0 0 16 0 2 0 0 0 19 97 10 209 329 558 346 397 366 243 200 217 305 366 456 467 487 653 658 597 568 612 653 813 1100 862 468 459 506 487
1099 1133 1648 1579 14 8 34 2 2 0 0 0 0 0 0 0 0 0 3 38 103 28 152 376 521 381 321 451 343 228 150 199 296 310 266 289 369 523 667 488 521 602 572 611 946 339 347 405 441
1766 2294 2361 604 61 23 57 3 0 0 0 0 0 0 0 0 0 0 7 83 132 110 81 242 308 343 341 265 269 251 275 244 260 269 199 179 278 296 365 556 537 569 561 281 241 271 276 268 531
2323 2603 2081 383 17 118 131 0 0 0 0 0 5 0 0 5 10 22 58 127 210 118 113 307 317 204 278 328 253 267 166 181 183 230 231 248 281 299 303 259 336 433 425 586 407 218 290 195 220
2077 1804 355 8 25 75 39 4 0 0 0 30 18 36 15 2 67 19 89 175 247 179 179 425 660 481 411 867 748 339 230 231 306 388 271 304 294 432 485 456 529 572 514 477 529 276 203 206 121
189 232 7 0 0 54 80 57 1 0 0 29 63 42 16 64 102 173 223 242 252 155 339 683 862 828 766 555 569 649 555 439 428 366 293 399 646 969 718 688 429 536 472 450 426 436 211 146 118
35 23 0 0 2 24 57 41 0 0 0 0 1 19 25 249 239 293 258 139 140 239 226 571 914 771 862 942 928 1071 970 833 831 797 724 818 335 470 356 604 539 934 693 488 396 400 302 131 88
194 240 0 0 0 0 5 10 0 0 0 4 0 0 9 277 134 119 146 170 256 238 227 271 376 870 759 919 1101 801 886 983 919 768 591 637 490 533 664 179 281 784 793 519 647 400 457 410 155
46 66 15 0 0 0 0 0 0 0 2 1 5 0 2 65 174 125 66 117 146 220 259 309 389 336 369 511 735 956 485 761 420 665 684 466 579 443 664 240 11 215 497 832 607 671 541 262 263
88 49 17 61 0 0 0 0 0 0 19 11 0 11 26 29 5 52 110 136 145 192 201 202 341 310 477 738 807 441 501 547 427 357 287 224 459 574 402 488 276 0 169 822 729 597 629 519 85
36 146 32 2 0 0 0 0 0 0 17 0 0 1 18 0 6 0 28 27 45 271 471 339 261 434 640 786 284 485 368 345 530 610 388 222 14 199 285 68 322 0 77 216 819 602 294 173 169
81 60 90 129 44 15 19 29 132 0 1 17 3 13 32 8 22 11 50 84 123 170 317 446 516 443 630 553 468 568 511 388 454 393 549 551 135 4 23 135 327 502 211 145 414 102 210 113 105
136 104 126 123 129 114 117 7 0 19 21 40 29 16 27 0 0 0 20 19 50 124 286 366 260 346 559 379 576 784 660 504 828 527 571 729 417 232 303 589 651 356 183 96 385 344 343 311 249
266 196 228 243 211 146 173 8 0 0 19 15 12 7 9 0 0 0 2 17 41 167 437 431 374 428 312 180 409 769 646 828 839 776 1035 816 857 858 883 581 585 618 472 201 79 243 252 234 356
20 207 269 287 357 285 323 70 0 0 8 1 0 0 0 6 19 22 111 143 130 190 549 605 536 284 440 166 568 918 976 959 900 1183 1509 1516 1258 1063 1066 891 741 611 633 594 276 514 416 182 217
5 2 41 349 367 25 390 242 10 0 1 3 0 1 0 0 0 0 42 88 124 354 699 828 842 559 584 471 749 1454 1132 685 1329 1145 1069 680 1035 1332 808 1033 1124 337 755 668 452 719 250 142 115
2 17 94 182 462 251 714 259 34 7 0 1 0 0 0 0 0 0 0 23 81 320 574 793 905 869 930 1168 994 1544 1094 632 871 709 588 62 231 1218 1070 984 978 1199 1051 665 743 673 265 202 163
0 9 128 125 463 494 630 579 70 62 18 5 9 25 13 78 17 15 16 41 136 439 593 574 940 1025 1205 1482 1501 1744 1222 1073 1235 70 234 0 339 1094 214 525 1019 1170 888 592 537 325 612 144 133
7 64 51 112 191 196 398 513 321 158 94 58 70 222 253 316 194 111 107 331 329 454 632 486 1105 1253 1553 1407 1430 1436 1604 1390 1302 929 931 303 749 1619 1109 2 1137 920 1022 919 288 847 219 323 240
2 25 2 37 88 77 12 313 525 366 261 222 188 267 248 360 351 346 360 717 465 407 442 919 1266 1653 1571 1434 946 1094 1586 1126 1179 1001 1294 1752 1540 1779 1366 1199 1246 594 28 976 425 300 424 210 278
1 15 73 121 97 144 59 211 386 740 609 332 378 395 336 359 523 554 539 778 738 678 614 810 1295 1501 1568 1328 1625 1850 1954 886 92 38 1151 2009 2324 1664 381 735 1288 1142 1162 1130 416 396 612 235 336
12 4 8 33 175 8 392 336 670 351 113 575 503 545 498 449 672 637 676 861 970 905 875 772 1498 1150 1055 1414 1998 1330 1090 1420 1402 821 928 2107 2610 2369 1581 1754 1884 1715 1513 1201 511 146 764 697 326
0 17 5 92 22 14 37 328 538 203 408 761 879 641 652 633 654 768 714 774 1106 1103 1128 1120 1389 1505 1299 1432 1852 1624 1030 898 1324 2069 1523 2112 2286 2322 2290 2088 1809 2062 1641 1280 364 242 325 729 338
0 0 0 0 10 21 0 110 211 48 179 587 828 774 652 708 644 743 801 719 958 1328 1336 1434 1462 1712 1630 1597 1859 2293 1631 1472 1953 1904 1962 2076 2176 1101 1912 2292 2005 1970 1593 1070 636 452 432 555 588
0 0 0 0 0 31 169 256 284 183 21 371 590 791 731 680 697 678 752 849 860 1357 1498 1675 1615 1796 1907 1816 1683 1927 2293 1839 1713 2003 1736 2116 1792 1108 1270 1987 1976 1431 1888 1639 1067 658 524 481 208
0 0 0 0 0 0 99 32 55 124 335 376 107 179 762 753 761 779 747 987 907 1282 1519 1855 1811 1765 1994 2229 2048 1979 2024 2316 2345 1935 1826 1972 1938 1853 1863 2107 1794 2092 2042 2036 1491 1200 740 772 481
0 0 0 0 0 0 6 67 121 73 178 40 3 155 407 877 914 768 747 953 1015 1147 1457 1893 1910 1936 2090 2047 2578 2550 2279 2285 2421 2134 1918 1794 2157 1775 994 1252 1826 2237 2193 2073 1986 1486 1190 862 660
0 0 0 0 0 0 15 45 30 28 52 42 0 69 500 505 1013 839 832 1044 995 1106 1420 2019 2028 2011 2205 2259 2370 2795 2761 2558 2567 2831 2389 1767 1971 1580 1040 1449 1873 2436 2526 2286 2031 1758 1324 843 441
0 0 0 0 0 0 0 23 6 36 8 63 69 197 140 257 903 952 974 1163 953 1020 1612 1943 2206 2267 2345 2640 2845 2894 3112 3060 2735 2807 2825 1966 2425 2354 1994 2281 2396 2455 2489 2357 2096 1868 1811 1429 722
0 0 0 0 0 0 0 39 78 150 58 68 29 391 554 500 315 545 1033 1080 981 1024 1487 1809 2110 2224 2396 2677 2981 2956 3021 3052 2190 2611 2649 2692 2152 2180 2333 2805 2639 2683 2888 2406 2085 1953 1858 1692 1115
CIN
-435 -459 -336 -146 -68 -5 -9 -31 0 -63 0 -9 0 -57 -45 -68 0 0 0 -118 -44 -134 -7 -33 -2 -2 -4 -6 -14 -23 -17 -4 -17 -9 -17 -13 -4 0 0 0 0 0 0 0 -1 -19 -29 -28 -19
-345 -327 -192 -58 -69 -34 -10 -23 -35 0 0 0 0 0 0 0 0 0 -89 -113 -47 -133 -29 -60 -3 -2 0 0 -4 -14 -22 -10 -19 -13 -22 -30 -23 -2 0 -3 -3 0 0 -2 -1 -27 -49 -22 -31
-287 -162 -48 -59 -55 -18 -13 -9 0 0 0 0 0 0 0 0 0 -69 -132 -153 -71 -81 -111 -32 -18 -19 -2 -8 -3 -22 -7 -7 -12 -16 -27 -47 -41 -29 -7 -2 -8 -1 -1 -14 -24 -27 -37 -55 -31
-118 -35 -54 -30 -11 -23 -23 -1 0 0 0 0 -141 0 0 -137 -194 -259 -220 -156 -89 -140 -163 -61 -22 -34 -9 -10 -5 -12 -33 -22 -22 -20 -28 -29 -31 -29 -15 -16 -21 -3 -2 -2 -7 -32 -28 -47 -42
-96 -30 -22 -5 -7 -9 -79 -21 0 0 0 -127 -149 -168 -133 -20 -129 -189 -164 -114 -97 -123 -94 -39 -7 -12 -10 -1 0 -8 -33 -39 -21 -12 -38 -29 -15 -9 -3 0 -6 -4 -1 -1 -4 -17 -32 -40 -48
-91 -147 -17 0 0 -14 -45 -29 -33 0 0 -179 -182 -184 -182 -91 -109 -109 -128 -136 -132 -162 -63 -20 -5 -2 -1 -1 -1 0 -5 -25 -30 -12 -41 -40 -10 0 -1 -1 -8 -5 -2 -1 0 -8 -33 -42 -56
-202 -132 0 0 -2 -4 -14 -17 0 0 0 0 -68 -229 -204 -47 -83 -93 -110 -183 -209 -112 -105 -50 -16 -19 0 -10 -1 -1 0 -3 -1 -4 -8 -6 -29 -19 -20 -7 -8 0 -1 0 -2 -9 -14 -42 -56
-165 -40 0 0 0 0 -5 -3 0 0 0 -182 0 0 -256 -83 -100 -138 -156 -181 -132 -114 -122 -111 -94 -28 -38 -12 -7 -7 -6 -2 -1 -9 -22 -17 -25 -20 -9 -31 -21 -2 -1 -2 0 -10 -11 -19 -39
-378 -36 -41 0 0 0 0 0 0 0 -81 -61 -71 0 -155 -184 -124 -145 -221 -187 -162 -151 -139 -114 -108 -132 -97 -59 -37 -19 -69 -14 -32 -27 -20 -21 -20 -24 -10 -15 -28 -22 -10 0 -1 0 -12 -29 -29
-119 -88 -55 -19 0 0 0 0 0 0 -188 -227 0 -221 -215 -198 -272 -256 -195 -168 -150 -159 -171 -195 -130 -181 -86 -42 -46 -77 -76 -42 -48 -48 -34 -50 -41 -34 -29 -11 -23 -32 -29 0 -1 -8 -4 -21 -48
-37 -34 -38 -10 0 0 0 0 0 0 -134 0 -3 -122 -245 -38 -271 0 -226 -209 -207 -115 -98 -117 -175 -146 -107 -63 -126 -96 -81 -66 -49 -35 -24 -112 -76 -101 -90 -101 -37 0 -35 -29 -5 -19 -42 -43 -43
-50 -41 -32 -11 -51 -99 -87 -43 -15 0 -12 -225 -267 -273 -257 -287 -249 -259 -234 -220 -200 -173 -133 -106 -115 -138 -97 -100 -80 -53 -59 -59 -47 -35 -8 -53 -64 -20 -144 -114 -46 -28 -30 -34 -11 -30 -43 -45 -40
-21 -30 -37 -18 -21 -31 -22 -65 0 -35 -165 -185 -231 -257 -255 0 0 0 -245 -261 -264 -207 -130 -123 -167 -128 -69 -83 -50 -39 -36 -37 -31 -33 -40 -42 -59 -105 -96 -51 -35 -30 -66 -98 -40 -23 -31 -32 -20
-81 -38 -44 -17 -31 -13 -39 -27 0 0 -208 -233 -277 -293 -298 -47 0 0 -113 -218 -242 -174 -115 -99 -109 -101 -105 -118 -53 -30 -37 -24 -32 -40 -30 -40 -40 -35 -27 -28 -37 -39 -46 -69 -74 -39 -28 -26 -15
-186 -113 -49 -35 -37 -34 -50 -119 -1 0 -182 -45 0 -25 0 -253 -208 -179 -127 -119 -148 -148 -98 -63 -80 -151 -86 -127 -27 -25 -33 -33 -28 -32 -20 -20 -25 -15 -11 -31 -42 -48 -47 -41 -73 -34 -29 -38 -38
-32 -52 -152 -50 -36 -75 -55 -61 -128 0 -82 -181 0 -25 0 0 0 0 -121 -104 -99 -63 -78 -82 -75 -112 -101 -83 -35 -30 -23 -37 -36 -26 -41 -83 -46 -27 -21 -25 -28 -45 -30 -32 -64 -13 -40 -44 -44
-228 -61 -186 -154 -42 -83 -51 -86 -144 -170 0 -45 0 0 0 0 0 0 -71 -167 -127 -76 -53 -44 -86 -82 -68 -42 -26 -32 -31 -64 -79 -77 -96 -67 -112 -32 -33 -41 -39 -23 -11 -29 -16 -28 -41 -46 -58
-7 -207 -100 -114 -53 -52 -65 -60 -154 -183 -227 -190 -156 -123 -89 -80 -74 -94 -144 -146 -126 -69 -46 -42 -61 -60 -62 -28 -19 -23 -33 -56 -80 -45 -155 -13 -107 -40 -126 -99 -45 -10 -18 -20 -21 -31 -43 -68 -76
-127 -92 -120 -46 -58 -94 -70 -87 -107 -167 -174 -191 -166 -137 -107 -68 -64 -76 -95 -66 -87 -61 -48 -35 -33 -59 -39 -33 -20 -22 -27 -46 -59 -112 -105 -134 -72 -27 -44 -43 -42 -35 -34 -26 -42 -30 -30 -49 -65
-25 -134 -49 -109 -66 -45 -77 -94 -82 -136 -181 -209 -185 -147 -126 -84 -80 -63 -51 -39 -89 -85 -64 -49 -31 -32 -37 -31 -38 -25 -19 -63 -73 -111 -74 -60 -53 -28 -66 -63 -43 -50 -24 -41 -28 -39 -27 -43 -54
-6 -97 -125 -62 -19 -52 -106 -78 -112 -84 -104 -155 -185 -203 -161 -99 -76 -55 -52 -58 -79 -89 -87 -76 -55 -47 -52 -39 -27 -17 -20 -80 -186 -92 -53 -41 -17 -48 -87 -72 -35 -37 -44 -31 -43 -40 -30 -37 -30
-86 -136 -71 -146 -11 -3 -32 -67 -91 -126 -56 -163 -135 -157 -129 -103 -88 -76 -50 -86 -104 -104 -98 -91 -66 -74 -58 -40 -17 -32 -31 -21 -30 -38 -47 -27 -15 -13 -25 -34 -18 -18 -25 -17 -30 -65 -26 -18 -16
0 -129 -137 -42 -51 -50 -31 -55 -105 -185 -120 -115 -76 -119 -111 -101 -81 -109 -83 -54 -105 -127 -114 -101 -87 -73 -55 -49 -25 -32 -47 -40 -20 -16 -26 -17 -20 -8 -5 -10 -21 -19 -29 -27 -61 -38 -30 -26 -42
0 0 0 0 -72 -54 0 -63 -119 -148 -93 -57 -54 -108 -143 -96 -81 -77 -107 -66 -94 -126 -144 -131 -112 -86 -65 -50 -28 -21 -32 -18 -17 -17 -19 -26 -30 -55 -58 -25 -27 -23 -38 -45 -51 -55 -47 -41 -38
0 0 0 0 0 -52 -48 -48 -92 -187 -193 -152 -101 -88 -107 -112 -94 -81 -79 -77 -80 -119 -146 -136 -131 -96 -84 -65 -52 -40 -31 -28 -21 -14 -20 -25 -44 -61 -65 -42 -30 -44 -26 -37 -57 -58 -61 -66 -66
0 0 0 0 0 -9 -61 -35 -83 -148 -180 -166 -281 -157 -76 -95 -92 -73 -64 -69 -90 -133 -149 -146 -140 -117 -98 -85 -68 -56 -43 -24 -22 -23 -17 -21 -22 -37 -58 -45 -48 -35 -23 -17 -45 -51 -57 -49 -65
0 0 0 0 0 0 -32 -168 -137 -197 -226 -292 -241 -227 -134 -79 -77 -49 -51 -79 -95 -114 -151 -173 -160 -136 -110 -108 -79 -65 -55 -34 -23 -22 -23 -29 -29 -45 -91 -83 -69 -40 -23 -20 -32 -51 -57 -70 -81
0 0 0 0 0 0 -16 -77 -69 -124 -144 -289 -6 -179 -131 -135 -73 -47 -46 -72 -111 -106 -147 -154 -153 -138 -117 -115 -103 -68 -59 -48 -30 -17 -19 -18 -31 -46 -88 -71 -62 -25 -17 -25 -43 -53 -71 -100 -138
0 0 0 0 0 0 0 -51 -119 -65 -126 -176 -253 -99 -131 -131 -56 -40 -34 -85 -119 -135 -140 -144 -150 -138 -133 -124 -92 -70 -48 -37 -33 -20 -10 -21 -16 -28 -40 -38 -26 -24 -20 -32 -50 -60 -55 -73 -117
0 0 0 0 0 0 0 -23 -50 -87 -66 -97 -93 -43 -70 -52 -154 -60 -35 -78 -107 -160 -166 -176 -160 -154 -151 -122 -90 -63 -56 -67 -41 -20 -14 -15 -21 -22 -19 -13 -14 -16 -15 -43 -61 -64 -41 -36 -65
Wind_Speed
22 23 21 22 10 14 21 16 34 32 28 25 25 25 26 18 5 12 27 5 18 18 18 15 9 6 6 26 33 31 30 29 28 29 31 31 31 27 25 26 27 24 25 26 26 25 25 26 26
21 23 19 19 26 29 25 31 33 32 29 33 30 24 14 25 21 28 20 17 25 26 14 19 10 31 31 30 31 30 29 28 28 28 28 28 28 25 24 24 24 21 22 24 23 23 24 25 26
18 18 18 23 30 29 29 33 34 34 35 33 32 34 27 33 28 33 14 31 29 26 21 14 22 29 31 30 29 29 28 27 26 25 25 24 23 23 22 22 22 20 21 21 22 23 24 25 25
19 16 18 26 30 30 32 33 33 34 35 35 35 37 33 36 17 23 35 30 18 21 29 27 30 30 29 29 28 27 27 25 25 24 22 21 20 19 19 19 19 19 18 19 21 22 23 25 25
13 16 23 32 27 30 29 31 34 34 32 34 35 36 34 35 38 35 36 34 24 24 25 25 29 29 28 28 27 26 26 24 23 22 21 19 18 18 17 17 17 17 16 18 20 22 23 24 24
19 17 32 33 31 31 30 31 32 32 32 34 35 35 33 36 37 36 36 35 31 29 30 24 24 27 28 27 26 25 24 23 22 21 20 19 18 17 17 17 17 17 17 19 20 21 22 23 24
19 16 34 33 33 30 30 31 31 31 31 29 33 33 33 33 33 33 35 33 29 30 29 26 26 25 26 26 25 24 23 22 21 20 19 18 18 18 18 18 18 18 18 19 21 22 22 23 24
11 17 32 32 31 30 26 27 31 29 28 31 33 30 32 33 33 33 33 29 28 27 28 28 26 25 24 24 23 23 22 22 21 20 20 19 19 18 18 19 19 19 19 19 21 22 22 23 24
14 23 30 31 31 30 26 28 27 28 30 28 24 30 34 32 35 31 28 32 30 27 27 28 27 26 25 22 22 21 21 20 20 20 20 19 18 18 17 18 17 18 19 19 21 22 23 23 25
21 30 30 30 32 29 27 27 27 28 28 26 27 28 30 29 28 29 27 26 28 27 25 26 25 24 22 22 21 20 19 20 21 20 19 18 16 16 16 17 16 18 19 19 20 21 22 23 23
26 31 33 31 30 30 28 28 27 26 23 25 28 30 31 29 26 25 25 26 27 25 25 25 24 23 22 22 21 21 19 20 19 19 19 19 21 19 18 16 17 17 18 18 19 19 21 22 23
27 28 30 30 29 29 28 28 21 23 23 25 27 28 30 28 29 26 26 24 24 25 25 24 23 22 22 21 20 19 19 19 18 17 14 17 18 17 18 17 17 17 18 18 17 19 20 21 20
24 28 26 29 28 27 31 28 29 27 27 27 27 27 27 27 27 26 25 23 21 22 24 19 18 9 16 19 18 18 18 17 16 15 16 18 18 18 17 17 18 18 19 19 17 18 18 18 19
10 25 25 26 24 26 28 28 28 30 30 28 26 27 27 26 26 25 24 22 22 23 21 19 14 7 10 16 16 17 18 16 15 15 16 17 17 17 17 18 17 18 18 17 18 19 18 19 17
10 6 15 24 23 21 27 26 27 28 28 28 27 27 26 26 25 23 23 22 21 21 18 17 14 13 11 13 15 15 15 15 14 15 16 16 16 16 17 18 17 17 17 18 18 18 18 17 13
22 17 19 14 23 16 24 25 26 28 27 27 26 25 24 25 24 23 23 22 20 19 18 16 14 14 14 15 16 12 16 11 11 13 15 15 14 16 17 17 17 17 17 16 16 16 16 15 16
13 16 22 20 21 21 22 25 26 27 27 26 25 24 23 24 22 21 20 19 19 19 19 18 16 16 17 18 14 13 13 10 12 12 17 16 16 15 16 14 15 15 14 15 16 15 16 15 10
14 17 20 20 21 14 12 19 25 25 24 24 24 23 22 22 22 20 19 18 18 19 20 18 17 16 16 17 15 13 13 13 15 16 20 10 18 18 17 15 15 17 21 18 17 16 15 17 19
18 14 17 19 19 16 20 19 21 23 21 21 22 21 21 21 21 20 20 19 19 19 20 19 19 17 14 11 12 15 15 15 16 16 16 15 17 18 17 16 17 17 18 18 17 18 16 16 18
10 12 17 16 17 12 15 21 21 21 20 20 19 20 19 20 20 21 21 20 21 21 19 19 19 19 17 15 18 16 14 12 16 15 13 17 16 16 16 16 15 16 15 17 16 15 15 15 18
8 9 16 13 16 10 13 8 25 19 17 17 17 18 19 21 21 22 22 22 21 21 21 21 20 21 19 17 19 17 15 15 14 14 13 12 15 17 16 16 16 15 13 15 15 15 15 15 18
11 6 23 21 11 12 9 7 12 10 10 13 13 16 18 22 21 23 23 23 22 21 21 22 21 21 19 20 17 17 17 16 16 13 11 11 14 15 15 16 16 15 16 15 15 18 15 16 16
29 11 18 10 20 16 5 11 3 3 6 17 22 19 20 24 24 25 25 24 23 21 21 21 20 21 20 21 19 18 16 17 18 13 12 12 13 14 14 15 16 16 15 16 17 19 18 13 13
29 27 25 25 11 8 7 9 4 1 13 27 21 17 20 25 26 25 26 26 24 24 23 21 20 19 19 19 19 17 17 17 17 11 13 13 13 13 15 14 15 15 16 15 16 17 15 15 15
22 25 26 29 27 15 12 12 6 10 8 15 23 19 17 25 25 25 24 28 26 26 24 22 19 17 17 18 18 17 16 18 16 10 11 11 12 12 15 14 14 15 15 15 15 15 16 14 12
27 25 25 29 26 24 13 19 18 10 7 27 23 20 21 18 24 25 25 27 27 25 22 21 20 18 17 16 17 14 14 13 13 10 10 13 12 11 13 14 13 14 14 15 15 14 13 14 10
30 32 32 32 31 29 17 17 15 7 7 13 31 23 26 18 22 24 25 27 26 24 22 21 19 18 18 16 14 12 8 7 5 8 12 12 11 12 12 13 11 12 13 13 13 13 13 12 11
19 28 23 22 25 28 18 10 13 6 9 12 19 30 28 25 21 28 27 27 25 24 21 19 18 18 17 15 13 8 6 3 2 8 16 14 13 11 11 10 10 10 11 11 11 11 11 10 9
20 28 25 25 20 19 20 20 10 8 10 13 10 29 29 33 19 28 29 27 24 23 20 18 17 16 15 13 11 9 8 3 5 3 16 16 10 13 11 9 8 8 8 8 7 7 7 7 6
18 22 24 23 27 27 23 18 7 10 10 11 9 18 20 11 12 23 28 28 25 23 19 18 17 16 15 13 12 14 16 18 24 27 24 20 18 16 8 6 5 5 4 3 3 3 3 2 3
Wind_Direction
132 133 135 125 135 142 39 108 95 95 103 106 88 124 104 129 289 62 108 178 178 175 177 177 174 95 82 156 126 134 134 129 82 82 86 100 99 119 125 115 101 118 114 111 108 113 115 118 123
143 121 132 131 54 95 123 100 92 98 108 99 77 62 50 122 78 100 93 185 170 166 181 176 182 112 143 146 130 136 128 126 111 107 108 107 101 115 124 117 114 125 122 112 118 120 119 119 125
150 154 127 111 74 63 72 84 76 87 88 98 99 84 128 113 92 113 179 164 164 167 138 80 169 106 132 138 135 122 127 119 122 122 124 113 117 117 128 124 118 126 121 118 119 121 123 122 131
143 154 140 100 70 72 89 95 90 87 86 94 97 89 123 118 162 168 155 162 174 175 128 105 120 120 118 140 136 126 122 123 131 134 132 132 138 133 137 134 127 127 130 127 124 124 127 128 135
183 161 125 74 55 80 70 97 99 94 85 85 93 99 109 117 114 110 123 150 168 171 172 101 117 123 132 142 136 129 128 126 139 140 139 147 146 135 139 142 138 135 142 135 131 128 128 132 143
145 143 99 85 84 75 78 117 97 95 87 93 91 100 119 116 119 124 129 124 116 111 129 104 105 119 139 138 134 132 132 128 138 147 143 147 139 136 144 142 134 137 137 131 130 133 130 132 143
134 136 83 80 89 79 92 107 98 95 93 101 109 99 118 122 125 126 126 118 108 114 120 115 119 116 131 132 127 138 133 127 142 148 143 145 135 137 131 135 134 135 135 132 127 131 132 137 143
163 139 80 84 94 78 88 88 101 98 103 102 104 121 118 130 129 116 116 109 103 109 123 132 124 123 123 121 120 132 130 127 138 139 141 140 141 141 135 128 126 133 129 136 130 130 132 136 145
178 120 86 91 99 81 64 76 82 94 104 112 129 112 123 108 122 115 106 116 118 122 124 139 135 128 129 120 126 121 121 127 131 139 143 136 136 139 136 130 132 134 134 137 134 130 136 136 143
128 89 88 105 95 89 87 92 100 109 113 98 95 107 118 114 108 108 109 111 129 128 128 130 129 123 117 129 123 116 114 126 137 139 136 122 151 143 144 144 136 129 134 136 132 138 140 147 150
109 85 89 86 87 97 107 112 106 108 101 111 110 117 128 124 117 123 126 133 140 141 135 141 138 131 127 137 123 127 124 133 137 147 129 104 143 107 119 143 135 129 128 136 135 133 142 147 158
92 92 91 84 93 107 110 110 117 114 111 108 111 118 130 131 137 131 134 126 130 143 142 154 143 138 143 133 131 129 133 134 138 139 95 119 138 129 135 136 126 131 124 140 139 141 137 148 155
102 88 107 96 107 109 92 92 82 102 101 107 111 119 129 133 137 138 135 122 116 127 129 105 108 59 96 122 114 137 136 129 115 129 89 118 117 113 122 130 129 126 126 135 118 144 149 154 154
283 88 112 120 127 110 91 90 90 100 106 109 114 126 133 140 142 143 134 123 122 132 126 119 105 52 72 107 108 118 135 123 102 107 96 103 112 117 122 116 126 127 129 129 120 134 148 162 142
338 294 181 120 125 139 99 81 87 102 106 113 118 130 136 146 148 136 127 130 128 135 120 114 98 102 89 109 116 102 104 104 84 101 107 123 114 142 134 113 132 125 131 136 127 127 114 110 94
358 241 203 197 105 154 120 91 97 107 107 113 123 134 136 144 143 132 129 129 126 126 119 115 101 98 106 119 118 82 142 39 354 305 266 241 230 102 141 134 130 119 105 128 131 128 75 126 156
42 138 180 204 164 120 118 95 105 114 113 118 125 134 138 147 136 130 128 127 128 124 127 123 116 110 118 127 107 101 125 29 44 40 159 181 190 184 86 189 134 127 117 116 107 87 60 35 94
120 133 178 196 169 94 275 120 110 121 117 122 126 131 136 139 135 128 126 126 122 120 132 123 125 123 118 122 114 89 104 85 103 93 181 348 181 129 88 158 115 85 54 78 61 51 25 29 46
10 16 267 168 185 88 119 131 114 126 118 118 125 126 129 134 129 125 132 127 123 123 129 133 131 127 113 96 102 135 99 91 112 118 135 129 144 104 83 110 80 52 75 61 62 53 37 29 51
39 63 102 157 146 89 58 160 144 131 130 126 126 127 129 138 132 133 136 125 127 133 134 132 129 128 125 115 133 119 121 87 119 129 85 133 123 60 82 93 84 80 83 63 58 59 46 60 85
95 124 150 115 127 78 87 68 189 133 140 138 131 135 133 140 137 140 141 135 134 135 135 140 140 142 136 135 146 128 90 100 106 113 91 35 60 65 80 87 99 79 88 85 71 86 76 88 111
190 126 217 190 94 56 90 66 134 116 142 151 143 143 140 143 139 149 149 144 142 143 141 142 142 148 147 149 147 150 156 136 144 130 87 64 83 91 99 86 81 81 83 103 122 132 74 102 127
237 155 174 151 310 358 85 1 85 51 141 175 173 156 150 153 149 151 157 154 153 146 146 143 140 146 151 156 157 157 148 153 168 87 71 100 92 104 87 83 86 100 106 131 135 127 127 70 61
270 279 280 286 344 359 165 358 30 51 346 224 176 150 157 155 155 156 159 159 152 152 149 145 141 143 149 153 157 149 149 152 154 82 84 94 85 88 121 99 100 111 118 124 135 140 126 116 114
281 279 273 273 283 320 356 1 17 164 166 170 182 169 158 161 155 157 154 160 154 152 152 149 145 140 143 148 152 153 149 158 141 43 86 94 112 124 124 95 101 113 124 115 118 123 146 120 106
269 273 274 275 280 302 345 332 343 145 146 175 180 157 161 151 155 156 156 156 156 152 147 144 147 144 144 142 151 144 147 139 133 107 108 305 139 117 119 118 110 112 125 118 102 102 113 139 88
260 263 264 272 281 296 327 334 1 86 126 159 218 169 170 150 152 154 154 154 156 151 147 145 142 142 145 142 134 137 121 124 52 102 143 130 84 91 98 121 105 126 132 119 107 107 119 122 109
276 262 282 286 286 289 317 341 353 58 112 124 166 183 176 173 155 159 154 150 149 150 145 143 141 141 145 139 138 97 88 75 39 335 171 145 133 116 113 101 103 115 122 114 98 99 100 103 92
272 264 274 282 293 297 300 314 357 126 133 126 144 194 186 182 155 157 158 151 138 143 140 135 135 134 135 130 112 100 60 20 304 7 285 150 104 134 129 115 99 101 106 107 92 99 108 118 100
280 270 266 273 272 277 298 317 55 133 155 168 140 138 140 118 350 228 165 154 140 138 138 136 129 128 129 123 109 126 133 147 183 211 193 179 178 175 125 88 86 64 84 94 96 132 113 44 54